Voltar ao catálogo

COSMOS 1375 DEB

AtivoLEO
NORAD 16202·DEBRIS·🇷🇺 Russia

Lançado Jun 6, 1982 de Plesetsk Cosmodrome

Loading…

Próximas Passagens (próximas 24 horas)

TLE

AtualizadoSource: Space-Track

Época: Sep 14, 2026, 12:07 UTC

1 16202U 82055D   26257.50503971  .00000184  00000-0  18056-3 0  9999
2 16202  65.8270  73.4593 0090050 300.4391  91.0350 13.98905886250334

Acompanhe COSMOS 1375 DEB em tempo real com AllMySat

Download on the App Store